Zurück zum Katalog

ITOS 1

TIROS M

AktivWetterSSO
NORAD 4320·PAYLOAD·🇺🇸 United States

Gestartet Jan 23, 1970 von Vandenberg Space Force Base

Loading…

Nächste Überflüge (nächste 24 Stunden)

TLE

AktuellSource: Space-Track

Epoche: Sep 14, 2026, 14:01 UTC

1 04320U 70008A   26257.58452103 -.00000028  00000-0  88667-4 0  9994
2 04320 101.3646 287.1197 0028488 138.0443  16.3921 12.52124368785040

Verfolge ITOS 1 in Echtzeit mit AllMySat

Download on the App Store